Tracking 30995 objects as of 5-Jul-2025
HD Live streaming from Space Station
objects crossing your sky now

DMSP 5D-2 F13 DEB

Track DMSP 5D-2 F13 DEB now!
10-day predictions


NORAD ID: 40517
Int'l Code: 1995-015DD
Perigee: 724.8 km
Apogee: 756.6 km
Inclination: 98.6 °
Period: 99.5 minutes
Semi major axis: 7111 km
RCS: Unknown
Launch date: March 24, 1995
Source: United States (US)
Launch site: AIR FORCE WESTERN TEST RANGE (AFWTR)

Note: This is SATELLITE DEBRIS
Your satellite tracking list
SITRO-AIS-34
Track 1 satellite(s)




NASA's NSSDC Master Catalog

Two Line Element Set (TLE):
1 40517U 95015DD  25185.94081440  .00005872  00000-0  16015-2 0  9995
2 40517  98.6027 226.6284 0022335 106.5862 253.7785 14.47579293538738
Source of the keplerian elements: AFSPC